{"data":{"norad_id":62111,"intl_designator":"2024-221A","name":"GUANGCHUAN 01","alt_names":[],"object_type":"PAYLOAD","status":"ACTIVE","operator":null,"country":"PRC","launch_date":"2024-11-27","launch_site_code":"JSC","launch_vehicle":null,"mission":null,"orbit_class":"UNKNOWN","rcs_meters":null,"size_class":null,"mass_kg":null,"dimensions":null,"purposes":[],"wikipedia_slug":null,"has_3d_model":false,"image_url":null,"decayed_at":null,"tle_current":{"epoch":"2026-09-22T20:51:32.992704Z","epoch_age_seconds":102933,"freshness":"FRESH","line1":"1 62111U 24221A   26265.86913186  .00002835  00000+0  16863-3 0  9999","line2":"2 62111  49.9442  46.5036 0007013 332.2414  27.8161 15.14374816100993","mean_motion":15.14374816,"eccentricity":0.0007013,"inclination_deg":49.9442,"raan_deg":46.5036,"arg_perigee_deg":332.2414,"mean_anomaly_deg":27.8161,"bstar":0.00016863,"rev_number":10099,"period_min":95.088744529148,"perigee_km":518.03753683353,"apogee_km":527.71689937584,"semimajor_km":6901.0142181047,"source":"CELESTRAK","updated_at":"2026-09-23T09:00:21.243892Z"}}}